Home   Weather   Mistelbach   Past weeks

Flag for Austria Past Weather in Mistelbach, Lower Austria, Austria — Yesterday and Last 2 Weeks

Now
38 °F

Passing clouds.


Feels Like: 38 °F
Forecast: 31 / 47 °F
Wind: 1 mph from North

Location: Wien / Hohe Warte

Current Time: Feb 19, 2017 at 7:47:31 pm

Latest Report: Feb 19, 2017 at 6:00 pm


Visibility: 7 mi

Pressure: 30.20 "Hg

Humidity: 89%

Dew Point: 35 °F

Location of MistelbachLocation

Past Weather in Mistelbach — Graph

°F

Mistelbach Temperature Yesterday

Maximum temperature yesterday: 43 °F (at 3:00 pm)
Minimum temperature yesterday: 35 °F (at 10:00 pm)
Average temperature yesterday: 40 °F

High & Low Weather Summary for the Past Weeks

 TemperatureHumidityPressure
High52 °F (Feb 5, 2:00 pm)98% (Feb 17, 6:00 am)30.64 "Hg (Feb 17, 6:00 am)
Low26 °F (Feb 9, 6:00 am)38% (Feb 5, 1:00 pm)29.68 "Hg (Feb 4, 8:00 pm)
Average35 °F80%30.30 "Hg
* Reported Feb 4 6:00 pm — Feb 19 6:00 pm, Mistelbach, Weather by CustomWeather, © 2017

Note: Actual official high and low records may vary slightly from our data, if they occured in-between our weather recording intervals... More about our weather records

Advertising

Mistelbach Weather History for the Previous 24 Hours

Scroll right to see more
 ConditionsComfort  
Time TempWeatherWind HumidityBarometerVisibility
6:00 pm
Sun, Feb 19
38 °FPassing clouds.1 mph89%30.20 "Hg7 mi
5:00 pm41 °FPartly sunny.1 mph79%30.21 "Hg9 mi
4:00 pm43 °FPartly sunny.1 mph76%30.22 "Hg9 mi
3:00 pm42 °FOvercast.2 mph80%30.23 "Hg11 mi
2:00 pm42 °FOvercast.2 mph81%30.25 "Hg11 mi
1:00 pm42 °FOvercast.2 mph81%30.27 "Hg9 mi
12:00 pm42 °FOvercast.2 mph81%30.29 "Hg7 mi
11:00 am40 °FPartly sunny.2 mph83%30.31 "Hg5 mi
10:00 am36 °FPassing clouds.1 mph91%30.32 "Hg1 mi
9:00 am33 °FFog.1 mph97%30.34 "Hg1 mi
8:00 am30 °FFog.No wind98%30.34 "Hg1 mi
7:00 am29 °FPassing clouds.1 mph97%30.32 "Hg2 mi
6:00 am31 °FPassing clouds.No wind97%30.33 "Hg2 mi
5:00 am32 °FChilly.No wind96%30.33 "HgN/A
4:00 am34 °FChilly.2 mph95%30.33 "HgN/A
3:00 am35 °FChilly.1 mph93%30.33 "HgN/A
2:00 am36 °FChilly.No wind91%30.34 "HgN/A
1:00 am36 °FPassing clouds.3 mph91%30.34 "Hg7 mi
12:00 am36 °FChilly.2 mph90%30.34 "HgN/A
11:00 pm
Sat, Feb 18
36 °FChilly.5 mph88%30.34 "HgN/A
10:00 pm35 °FClear.5 mph92%30.35 "Hg8 mi
9:00 pm37 °FClear.5 mph89%30.34 "Hg9 mi
8:00 pm38 °FChilly.5 mph88%30.33 "HgN/A
7:00 pm39 °FPassing clouds.5 mph88%30.33 "Hg9 mi
Weather by CustomWeather, © 2017

See weather overviewHow to use our weather pages